Time,TemperatureF,DewpointF,PressureIn,WindDirection,WindDirectionDegrees,WindSpeedMPH,WindSpeedGustMPH,Humidity,HourlyPrecipIn,Conditions,Clouds,dailyrainin,SoftwareType,DateUTC
2013-02-16 00:00:00,43.2,41.0,29.96,SSW,195,16.0,18.0,92,0.00,,,0.00,meteohub,2013-02-16 05:00:00,
2013-02-16 00:05:00,43.3,41.2,29.96,South,191,14.0,18.0,92,0.00,,,0.00,meteohub,2013-02-16 05:05:00,
2013-02-16 00:11:00,43.3,40.8,29.96,SSW,195,12.0,18.0,91,0.00,,,0.00,meteohub,2013-02-16 05:11:00,
2013-02-16 00:16:00,43.3,40.8,29.96,SSW,197,9.0,20.0,91,0.00,,,0.00,meteohub,2013-02-16 05:16:00,
2013-02-16 00:21:00,43.2,40.6,29.96,SSW,208,13.0,20.0,91,0.00,,,0.00,meteohub,2013-02-16 05:21:00,
2013-02-16 00:23:00,43.2,40.6,29.96,SSW,208,9.0,20.0,91,0.00,,,0.00,meteohub,2013-02-16 05:23:00,
2013-02-16 00:28:00,42.6,40.1,29.96,SSW,208,8.0,20.0,91,0.00,,,0.00,meteohub,2013-02-16 05:28:00,
2013-02-16 00:33:00,42.4,39.9,29.96,SSW,208,5.0,13.0,91,0.00,,,0.00,meteohub,2013-02-16 05:33:00,
2013-02-16 00:38:00,42.4,40.3,29.96,SSW,208,7.0,13.0,92,0.00,,,0.00,meteohub,2013-02-16 05:38:00,
2013-02-16 00:43:00,42.3,40.1,29.96,SSW,208,8.0,13.0,92,0.00,,,0.00,meteohub,2013-02-16 05:43:00,
2013-02-16 00:48:00,42.3,40.1,29.96,SSW,208,9.0,13.0,92,0.00,,,0.00,meteohub,2013-02-16 05:48:00,
2013-02-16 00:53:00,42.1,39.9,29.96,SSW,208,7.0,9.0,92,0.00,,,0.00,meteohub,2013-02-16 05:53:00,
2013-02-16 00:58:00,42.1,39.9,29.96,SSW,208,7.0,9.0,92,0.00,,,0.00,meteohub,2013-02-16 05:58:00,
2013-02-16 01:03:00,41.9,40.1,29.96,SSW,208,7.0,9.0,93,0.00,,,0.00,meteohub,2013-02-16 06:03:00,
2013-02-16 01:08:00,41.9,40.1,29.96,SSW,208,6.0,9.0,93,0.00,,,0.00,meteohub,2013-02-16 06:08:00,
2013-02-16 01:13:00,41.7,39.9,29.96,SSW,208,3.0,8.0,93,0.00,,,0.00,meteohub,2013-02-16 06:13:00,
2013-02-16 01:18:00,41.5,39.7,29.96,SSW,208,3.0,8.0,93,0.00,,,0.00,meteohub,2013-02-16 06:18:00,
2013-02-16 01:23:00,41.4,39.2,29.96,SSW,208,3.0,8.0,92,0.00,,,0.00,meteohub,2013-02-16 06:23:00,
2013-02-16 01:28:00,41.4,39.2,29.96,SSW,208,2.0,8.0,92,0.00,,,0.00,meteohub,2013-02-16 06:28:00,
2013-02-16 01:33:00,41.2,39.0,29.96,SSW,208,3.0,6.0,92,0.00,,,0.00,meteohub,2013-02-16 06:33:00,
2013-02-16 01:38:00,41.2,39.0,29.96,SSW,208,3.0,6.0,92,0.00,,,0.00,meteohub,2013-02-16 06:38:00,
2013-02-16 01:43:00,41.2,38.8,29.96,SSW,208,3.0,9.0,91,0.00,,,0.00,meteohub,2013-02-16 06:43:00,
2013-02-16 01:48:00,41.0,38.3,29.96,SSW,208,2.0,9.0,90,0.00,,,0.00,meteohub,2013-02-16 06:48:00,
2013-02-16 01:53:00,41.0,38.3,29.96,SSW,208,3.0,8.0,90,0.00,,,0.00,meteohub,2013-02-16 06:53:00,
2013-02-16 01:58:00,40.8,38.1,29.96,SSW,208,2.0,8.0,90,0.00,,,0.00,meteohub,2013-02-16 06:58:00,
2013-02-16 02:03:00,40.8,37.8,29.95,SSW,208,2.0,8.0,89,0.00,,,0.00,meteohub,2013-02-16 07:03:00,
2013-02-16 02:08:00,40.6,37.6,29.95,SSW,208,1.0,8.0,89,0.00,,,0.00,meteohub,2013-02-16 07:08:00,
2013-02-16 02:13:00,40.6,37.4,29.96,SSW,213,8.0,8.0,88,0.00,,,0.00,meteohub,2013-02-16 07:13:00,
2013-02-16 02:18:00,40.6,36.9,29.95,SSW,213,5.0,7.0,86,0.00,,,0.00,meteohub,2013-02-16 07:18:00,
2013-02-16 02:23:00,40.6,36.5,29.95,SW,227,8.0,10.0,85,0.00,,,0.00,meteohub,2013-02-16 07:23:00,
2013-02-16 02:28:00,40.6,35.6,29.95,WSW,253,10.0,10.0,82,0.00,,,0.00,meteohub,2013-02-16 07:28:00,
2013-02-16 02:33:00,40.6,34.7,29.94,WNW,287,8.0,12.0,79,0.00,,,0.00,meteohub,2013-02-16 07:33:00,
2013-02-16 02:38:00,40.8,34.2,29.94,WNW,298,10.0,12.0,77,0.00,,,0.00,meteohub,2013-02-16 07:38:00,
2013-02-16 02:43:00,41.0,33.6,29.94,WNW,295,14.0,14.0,75,0.00,,,0.00,meteohub,2013-02-16 07:43:00,
2013-02-16 02:48:00,40.8,33.4,29.94,WNW,294,11.0,16.0,75,0.00,,,0.00,meteohub,2013-02-16 07:48:00,
2013-02-16 02:53:00,40.8,33.3,29.95,WNW,302,6.0,16.0,74,0.00,,,0.00,meteohub,2013-02-16 07:53:00,
2013-02-16 02:58:00,40.8,33.3,29.94,WNW,296,6.0,16.0,74,0.00,,,0.00,meteohub,2013-02-16 07:58:00,
2013-02-16 03:03:00,40.6,33.1,29.94,NW,310,7.0,18.0,74,0.00,,,0.00,meteohub,2013-02-16 08:03:00,
2013-02-16 03:08:00,40.5,32.9,29.94,NW,309,9.0,18.0,74,0.00,,,0.00,meteohub,2013-02-16 08:08:00,
2013-02-16 03:13:00,40.5,33.1,29.94,NW,309,7.0,20.0,75,0.00,,,0.00,meteohub,2013-02-16 08:13:00,
2013-02-16 03:18:00,40.3,33.1,29.94,NW,314,11.0,20.0,75,0.00,,,0.00,meteohub,2013-02-16 08:18:00,
2013-02-16 03:23:00,40.3,33.1,29.94,NW,315,8.0,20.0,75,0.00,,,0.00,meteohub,2013-02-16 08:23:00,
2013-02-16 03:28:00,40.1,32.9,29.94,NW,313,4.0,15.0,75,0.00,,,0.00,meteohub,2013-02-16 08:28:00,
2013-02-16 03:33:00,39.9,32.7,29.94,NW,311,4.0,15.0,75,0.00,,,0.00,meteohub,2013-02-16 08:33:00,
2013-02-16 03:38:00,39.7,32.7,29.94,NW,312,7.0,15.0,76,0.00,,,0.00,meteohub,2013-02-16 08:38:00,
2013-02-16 03:43:00,39.7,32.7,29.94,NW,318,5.0,13.0,76,0.00,,,0.00,meteohub,2013-02-16 08:43:00,
2013-02-16 03:48:00,39.6,32.5,29.94,NW,318,6.0,13.0,76,0.00,,,0.00,meteohub,2013-02-16 08:48:00,
2013-02-16 03:53:00,39.6,32.9,29.94,NW,308,10.0,13.0,77,0.00,,,0.00,meteohub,2013-02-16 08:53:00,
2013-02-16 03:58:00,39.6,32.9,29.94,NW,309,8.0,13.0,77,0.00,,,0.00,meteohub,2013-02-16 08:58:00,
2013-02-16 04:04:00,39.4,33.1,29.94,NW,306,5.0,16.0,78,0.00,,,0.00,meteohub,2013-02-16 09:04:00,
2013-02-16 04:09:00,39.2,32.9,29.94,NW,308,11.0,16.0,78,0.00,,,0.00,meteohub,2013-02-16 09:09:00,
2013-02-16 04:14:00,39.0,33.1,29.94,NW,306,6.0,16.0,79,0.00,,,0.00,meteohub,2013-02-16 09:14:00,
2013-02-16 04:19:00,38.8,32.9,29.94,NW,326,8.0,16.0,79,0.00,,,0.00,meteohub,2013-02-16 09:19:00,
2013-02-16 04:24:00,38.8,33.3,29.94,NW,322,10.0,16.0,80,0.00,,,0.00,meteohub,2013-02-16 09:24:00,
2013-02-16 04:29:00,38.7,33.1,29.94,NW,321,10.0,17.0,80,0.00,,,0.00,meteohub,2013-02-16 09:29:00,
2013-02-16 04:34:00,38.5,33.1,29.94,NW,318,11.0,17.0,81,0.00,,,0.00,meteohub,2013-02-16 09:34:00,
2013-02-16 04:39:00,38.3,33.3,29.94,NW,314,12.0,17.0,82,0.00,,,0.00,meteohub,2013-02-16 09:39:00,
2013-02-16 04:44:00,38.1,33.1,29.94,NW,315,4.0,17.0,82,0.00,,,0.00,meteohub,2013-02-16 09:44:00,
2013-02-16 04:49:00,37.9,33.3,29.94,NW,323,9.0,17.0,83,0.00,,,0.00,meteohub,2013-02-16 09:49:00,
2013-02-16 04:54:00,37.8,33.1,29.93,NNW,330,10.0,17.0,83,0.00,,,0.00,meteohub,2013-02-16 09:54:00,
2013-02-16 04:59:00,37.6,33.3,29.93,NNW,345,8.0,18.0,84,0.00,,,0.00,meteohub,2013-02-16 09:59:00,
2013-02-16 05:04:00,37.4,33.1,29.93,NW,321,9.0,18.0,84,0.00,,,0.00,meteohub,2013-02-16 10:04:00,
2013-02-16 05:09:00,37.2,33.1,29.93,NW,325,13.0,18.0,85,0.00,,,0.00,meteohub,2013-02-16 10:09:00,
2013-02-16 05:14:00,37.0,32.9,29.93,North,355,11.0,18.0,85,0.00,,,0.00,meteohub,2013-02-16 10:14:00,
2013-02-16 05:19:00,37.0,32.9,29.94,NW,325,9.0,20.0,85,0.00,,,0.00,meteohub,2013-02-16 10:19:00,
2013-02-16 05:24:00,36.9,32.7,29.94,NW,311,12.0,20.0,85,0.00,,,0.00,meteohub,2013-02-16 10:24:00,
2013-02-16 05:29:00,36.9,32.7,29.94,WNW,299,8.0,20.0,85,0.00,,,0.00,meteohub,2013-02-16 10:29:00,
2013-02-16 05:34:00,36.7,32.9,29.94,NW,307,12.0,20.0,86,0.00,,,0.00,meteohub,2013-02-16 10:34:00,
2013-02-16 05:39:00,36.5,32.7,29.94,NNW,334,11.0,19.0,86,0.00,,,0.00,meteohub,2013-02-16 10:39:00,
2013-02-16 05:44:00,36.3,32.5,29.94,NNW,346,10.0,19.0,86,0.00,,,0.00,meteohub,2013-02-16 10:44:00,
2013-02-16 05:49:00,36.3,32.9,29.94,NNW,330,11.0,19.0,87,0.00,,,0.00,meteohub,2013-02-16 10:49:00,
2013-02-16 05:54:00,36.1,32.7,29.94,NW,323,9.0,19.0,87,0.00,,,0.00,meteohub,2013-02-16 10:54:00,
2013-02-16 05:59:00,36.1,32.7,29.94,NNW,343,15.0,21.0,87,0.00,,,0.00,meteohub,2013-02-16 10:59:00,
2013-02-16 06:04:00,36.1,32.7,29.94,NNW,333,14.0,21.0,87,0.00,,,0.00,meteohub,2013-02-16 11:04:00,
2013-02-16 06:09:00,36.0,32.7,29.94,NW,312,6.0,21.0,88,0.00,,,0.00,meteohub,2013-02-16 11:09:00,
2013-02-16 06:14:00,36.0,32.7,29.94,North,355,14.0,21.0,88,0.00,,,0.00,meteohub,2013-02-16 11:14:00,
2013-02-16 06:19:00,36.0,32.7,29.94,NW,306,12.0,18.0,88,0.00,,,0.00,meteohub,2013-02-16 11:19:00,
2013-02-16 06:24:00,36.0,32.7,29.94,NNW,343,8.0,18.0,88,0.00,,,0.00,meteohub,2013-02-16 11:24:00,
2013-02-16 06:29:00,36.0,33.1,29.95,NNW,328,8.0,18.0,89,0.00,,,0.00,meteohub,2013-02-16 11:29:00,
2013-02-16 06:34:00,35.8,32.9,29.95,NW,316,10.0,18.0,89,0.00,,,0.00,meteohub,2013-02-16 11:34:00,
2013-02-16 06:39:00,35.8,32.9,29.95,NW,316,8.0,18.0,89,0.00,,,0.00,meteohub,2013-02-16 11:39:00,
2013-02-16 06:44:00,35.8,32.9,29.95,NNW,335,12.0,14.0,89,0.00,,,0.00,meteohub,2013-02-16 11:44:00,
2013-02-16 06:49:00,35.8,32.9,29.95,NNW,330,5.0,14.0,89,0.00,,,0.00,meteohub,2013-02-16 11:49:00,
2013-02-16 06:54:00,35.6,32.7,29.95,NNW,343,13.0,14.0,89,0.00,,,0.00,meteohub,2013-02-16 11:54:00,
2013-02-16 06:59:00,35.4,32.7,29.96,NNW,346,11.0,14.0,90,0.00,,,0.00,meteohub,2013-02-16 11:59:00,
2013-02-16 07:04:00,35.4,32.7,29.96,NNW,330,8.0,14.0,90,0.00,,,0.00,meteohub,2013-02-16 12:04:00,
2013-02-16 07:09:00,35.4,32.7,29.96,NNW,342,7.0,16.0,90,0.00,,,0.00,meteohub,2013-02-16 12:09:00,
2013-02-16 07:14:00,35.2,32.9,29.96,NNW,329,7.0,16.0,91,0.00,,,0.00,meteohub,2013-02-16 12:14:00,
2013-02-16 07:19:00,35.2,32.9,29.96,NW,323,5.0,16.0,91,0.00,,,0.00,meteohub,2013-02-16 12:19:00,
2013-02-16 07:24:00,35.2,32.9,29.96,NNW,333,10.0,16.0,91,0.00,,,0.00,meteohub,2013-02-16 12:24:00,
2013-02-16 07:29:00,35.2,32.9,29.95,NNW,327,8.0,16.0,91,0.00,,,0.00,meteohub,2013-02-16 12:29:00,
2013-02-16 07:34:00,35.2,32.9,29.94,North,350,17.0,17.0,91,0.00,,,0.00,meteohub,2013-02-16 12:34:00,
2013-02-16 07:39:00,35.2,32.9,29.95,NNW,344,13.0,17.0,91,0.00,,,0.00,meteohub,2013-02-16 12:39:00,
2013-02-16 07:44:00,35.2,32.9,29.96,NNW,336,7.0,17.0,91,0.00,,,0.00,meteohub,2013-02-16 12:44:00,
2013-02-16 07:50:00,35.4,32.7,29.96,NW,325,9.0,17.0,90,0.00,,,0.00,meteohub,2013-02-16 12:50:00,
2013-02-16 07:55:00,35.4,32.7,29.96,NW,317,6.0,18.0,90,0.00,,,0.00,meteohub,2013-02-16 12:55:00,
2013-02-16 08:00:00,35.4,32.5,29.96,NNW,347,12.0,18.0,89,0.00,,,0.00,meteohub,2013-02-16 13:00:00,
2013-02-16 08:05:00,35.4,32.2,29.96,North,349,15.0,18.0,88,0.00,,,0.00,meteohub,2013-02-16 13:05:00,
2013-02-16 08:10:00,35.4,32.2,29.96,NNW,329,8.0,18.0,88,0.00,,,0.00,meteohub,2013-02-16 13:10:00,
2013-02-16 08:15:00,35.6,32.2,29.96,NW,325,14.0,21.0,87,0.00,,,0.00,meteohub,2013-02-16 13:15:00,
2013-02-16 08:20:00,35.6,31.8,29.95,NNW,338,10.0,21.0,86,0.00,,,0.00,meteohub,2013-02-16 13:20:00,
2013-02-16 08:25:00,35.4,31.6,29.95,NNW,339,11.0,21.0,86,0.00,,,0.00,meteohub,2013-02-16 13:25:00,
2013-02-16 08:30:00,35.6,31.5,29.94,NW,315,7.0,21.0,85,0.00,,,0.00,meteohub,2013-02-16 13:30:00,
2013-02-16 08:35:00,35.8,31.6,29.94,NW,306,11.0,22.0,85,0.00,,,0.00,meteohub,2013-02-16 13:35:00,
2013-02-16 08:40:00,36.1,31.8,29.94,NNW,348,15.0,22.0,84,0.00,,,0.00,meteohub,2013-02-16 13:40:00,
2013-02-16 08:45:00,36.7,32.4,29.94,NNW,338,10.0,22.0,84,0.00,,,0.00,meteohub,2013-02-16 13:45:00,
2013-02-16 08:50:00,36.7,31.6,29.94,North,355,16.0,22.0,82,0.00,,,0.00,meteohub,2013-02-16 13:50:00,
2013-02-16 08:55:00,37.0,31.8,29.94,NNW,340,11.0,24.0,81,0.00,,,0.00,meteohub,2013-02-16 13:55:00,
2013-02-16 09:00:00,37.4,31.8,29.94,NNW,344,18.0,24.0,80,0.00,,,0.00,meteohub,2013-02-16 14:00:00,
2013-02-16 09:05:00,37.4,31.8,29.94,NNW,348,19.0,24.0,80,0.00,,,0.00,meteohub,2013-02-16 14:05:00,
2013-02-16 09:10:00,37.0,31.5,29.94,NW,325,11.0,24.0,80,0.00,,,0.00,meteohub,2013-02-16 14:10:00,
2013-02-16 09:15:00,36.9,31.6,29.94,NW,313,7.0,24.0,81,0.00,,,0.00,meteohub,2013-02-16 14:15:00,
2013-02-16 09:20:00,36.9,31.3,29.94,North,355,16.0,24.0,80,0.00,,,0.00,meteohub,2013-02-16 14:20:00,
2013-02-16 09:25:00,36.9,31.3,29.94,NW,321,16.0,24.0,80,0.00,,,0.00,meteohub,2013-02-16 14:25:00,
2013-02-16 09:30:00,37.0,31.5,29.94,NNW,344,11.0,24.0,80,0.00,,,0.00,meteohub,2013-02-16 14:30:00,
2013-02-16 09:35:00,37.2,31.6,29.94,NW,308,10.0,20.0,80,0.00,,,0.00,meteohub,2013-02-16 14:35:00,
2013-02-16 09:40:00,37.2,31.6,29.94,WNW,301,12.0,20.0,80,0.00,,,0.00,meteohub,2013-02-16 14:40:00,
2013-02-16 09:45:00,37.2,31.6,29.94,NW,306,12.0,20.0,80,0.00,,,0.00,meteohub,2013-02-16 14:45:00,
2013-02-16 09:50:00,37.0,31.1,29.94,North,355,12.0,20.0,79,0.00,,,0.00,meteohub,2013-02-16 14:50:00,
2013-02-16 09:55:00,37.0,31.1,29.94,North,351,12.0,21.0,79,0.00,,,0.00,meteohub,2013-02-16 14:55:00,
2013-02-16 10:00:00,37.2,31.3,29.94,NNW,340,15.0,21.0,79,0.00,,,0.00,meteohub,2013-02-16 15:00:00,
2013-02-16 10:05:00,37.0,30.7,29.94,NNW,345,10.0,21.0,78,0.00,,,0.00,meteohub,2013-02-16 15:05:00,
2013-02-16 10:10:00,36.9,30.9,29.95,North,355,8.0,21.0,79,0.00,,,0.00,meteohub,2013-02-16 15:10:00,
2013-02-16 10:15:00,37.0,31.5,29.94,NNW,343,14.0,23.0,80,0.00,,,0.00,meteohub,2013-02-16 15:15:00,
2013-02-16 10:20:00,37.0,31.1,29.94,WNW,296,10.0,23.0,79,0.00,,,0.00,meteohub,2013-02-16 15:20:00,
2013-02-16 10:25:00,37.0,31.1,29.94,NW,323,9.0,23.0,79,0.00,,,0.00,meteohub,2013-02-16 15:25:00,
2013-02-16 10:30:00,37.2,31.3,29.94,NNW,348,12.0,23.0,79,0.01,,,0.00,meteohub,2013-02-16 15:30:00,
2013-02-16 10:35:00,37.4,31.1,29.95,North,355,15.0,19.0,78,0.01,,,0.00,meteohub,2013-02-16 15:35:00,
2013-02-16 10:40:00,37.0,30.7,29.95,NW,309,5.0,19.0,78,0.01,,,0.00,meteohub,2013-02-16 15:40:00,
2013-02-16 10:45:00,37.0,30.7,29.95,NW,322,8.0,19.0,78,0.01,,,0.01,meteohub,2013-02-16 15:45:00,
2013-02-16 10:50:00,37.0,30.7,29.94,WNW,301,7.0,19.0,78,0.01,,,0.01,meteohub,2013-02-16 15:50:00,
2013-02-16 10:55:00,37.0,30.7,29.94,NW,315,12.0,19.0,78,0.01,,,0.01,meteohub,2013-02-16 15:55:00,
2013-02-16 11:00:00,37.0,30.6,29.94,NW,323,14.0,19.0,77,0.01,,,0.01,meteohub,2013-02-16 16:00:00,
2013-02-16 11:05:00,36.9,30.6,29.93,North,0,17.0,19.0,78,0.01,,,0.01,meteohub,2013-02-16 16:05:00,
2013-02-16 11:10:00,36.7,30.7,29.94,NNW,330,11.0,19.0,79,0.01,,,0.01,meteohub,2013-02-16 16:10:00,
2013-02-16 11:15:00,36.7,30.6,29.94,NW,321,15.0,19.0,78,0.01,,,0.01,meteohub,2013-02-16 16:15:00,
2013-02-16 11:20:00,36.7,30.6,29.94,NNW,338,14.0,19.0,78,0.01,,,0.01,meteohub,2013-02-16 16:20:00,
2013-02-16 11:25:00,36.9,30.4,29.94,NNW,330,12.0,19.0,77,0.01,,,0.01,meteohub,2013-02-16 16:25:00,
2013-02-16 11:30:00,36.9,30.4,29.94,NW,325,15.0,19.0,77,0.00,,,0.01,meteohub,2013-02-16 16:30:00,
2013-02-16 11:35:00,36.9,30.4,29.93,NW,324,12.0,18.0,77,0.00,,,0.01,meteohub,2013-02-16 16:35:00,
2013-02-16 11:40:00,36.9,30.4,29.93,NW,320,8.0,18.0,77,0.00,,,0.01,meteohub,2013-02-16 16:40:00,
2013-02-16 11:45:00,36.9,30.4,29.93,NW,314,5.0,18.0,77,0.00,,,0.01,meteohub,2013-02-16 16:45:00,
2013-02-16 11:50:00,37.0,30.6,29.93,WNW,296,12.0,18.0,77,0.00,,,0.01,meteohub,2013-02-16 16:50:00,
2013-02-16 11:55:00,37.0,30.6,29.93,NW,319,9.0,17.0,77,0.00,,,0.01,meteohub,2013-02-16 16:55:00,
2013-02-16 12:00:00,36.9,30.6,29.92,WNW,298,6.0,17.0,78,0.00,,,0.01,meteohub,2013-02-16 17:00:00,
2013-02-16 12:05:00,36.9,30.9,29.92,North,350,5.0,17.0,79,0.00,,,0.01,meteohub,2013-02-16 17:05:00,
2013-02-16 12:10:00,36.7,30.7,29.92,NNW,333,13.0,17.0,79,0.00,,,0.01,meteohub,2013-02-16 17:10:00,
2013-02-16 12:15:00,36.5,30.6,29.92,NW,325,10.0,15.0,79,0.00,,,0.01,meteohub,2013-02-16 17:15:00,
2013-02-16 12:21:00,36.3,30.4,29.92,NNW,340,9.0,15.0,79,0.00,,,0.01,meteohub,2013-02-16 17:21:00,
2013-02-16 12:26:00,36.3,30.4,29.92,North,355,16.0,16.0,79,0.00,,,0.01,meteohub,2013-02-16 17:26:00,
2013-02-16 12:31:00,36.1,30.2,29.92,NNW,344,7.0,15.0,79,0.00,,,0.01,meteohub,2013-02-16 17:31:00,
2013-02-16 12:36:00,36.3,30.7,29.91,NNW,340,7.0,15.0,80,0.00,,,0.01,meteohub,2013-02-16 17:36:00,
2013-02-16 12:41:00,36.3,30.7,29.91,NNW,340,9.0,17.0,80,0.00,,,0.01,meteohub,2013-02-16 17:41:00,
2013-02-16 12:46:00,36.1,30.6,29.91,NW,321,9.0,17.0,80,0.00,,,0.01,meteohub,2013-02-16 17:46:00,
2013-02-16 12:51:00,36.1,30.6,29.91,NNW,348,8.0,17.0,80,0.00,,,0.01,meteohub,2013-02-16 17:51:00,
2013-02-16 12:56:00,36.0,30.4,29.91,NNW,327,6.0,17.0,80,0.00,,,0.01,meteohub,2013-02-16 17:56:00,
2013-02-16 13:01:00,36.0,30.9,29.91,NW,313,7.0,17.0,82,0.00,,,0.01,meteohub,2013-02-16 18:01:00,
2013-02-16 13:06:00,36.0,31.3,29.91,NW,320,7.0,17.0,83,0.00,,,0.01,meteohub,2013-02-16 18:06:00,
2013-02-16 13:11:00,35.6,31.3,29.91,NW,324,13.0,17.0,84,0.00,,,0.01,meteohub,2013-02-16 18:11:00,
2013-02-16 13:16:00,35.2,31.1,29.91,WNW,298,5.0,17.0,85,0.00,,,0.01,meteohub,2013-02-16 18:16:00,
2013-02-16 13:21:00,35.1,31.3,29.90,NW,309,12.0,17.0,86,0.00,,,0.01,meteohub,2013-02-16 18:21:00,
2013-02-16 13:26:00,34.9,31.5,29.90,NNW,333,8.0,17.0,87,0.00,,,0.01,meteohub,2013-02-16 18:26:00,
2013-02-16 13:31:00,34.9,31.5,29.90,NW,310,10.0,18.0,87,0.00,,,0.01,meteohub,2013-02-16 18:31:00,
2013-02-16 13:36:00,34.7,31.5,29.90,NW,313,7.0,18.0,88,0.00,,,0.01,meteohub,2013-02-16 18:36:00,
2013-02-16 13:41:00,34.5,31.6,29.89,WNW,300,7.0,18.0,89,0.00,,,0.01,meteohub,2013-02-16 18:41:00,
2013-02-16 13:46:00,34.3,31.5,29.89,NW,317,8.0,18.0,89,0.00,,,0.01,meteohub,2013-02-16 18:46:00,
2013-02-16 13:51:00,34.3,31.6,29.89,WNW,302,6.0,18.0,90,0.00,,,0.01,meteohub,2013-02-16 18:51:00,
2013-02-16 13:56:00,34.3,31.6,29.89,NW,308,9.0,14.0,90,0.00,,,0.01,meteohub,2013-02-16 18:56:00,
2013-02-16 14:01:00,34.3,32.0,29.89,NW,309,8.0,14.0,91,0.00,,,0.01,meteohub,2013-02-16 19:01:00,
2013-02-16 14:06:00,34.2,31.8,29.89,NW,307,6.0,14.0,91,0.00,,,0.01,meteohub,2013-02-16 19:06:00,
2013-02-16 14:11:00,34.2,31.8,29.88,WNW,303,7.0,14.0,91,0.00,,,0.01,meteohub,2013-02-16 19:11:00,
2013-02-16 14:16:00,34.2,31.8,29.88,NW,315,10.0,13.0,91,0.00,,,0.01,meteohub,2013-02-16 19:16:00,
2013-02-16 14:21:00,34.2,31.8,29.88,NW,318,6.0,13.0,91,0.00,,,0.01,meteohub,2013-02-16 19:21:00,
2013-02-16 14:26:00,34.2,31.8,29.88,NW,311,10.0,13.0,91,0.00,,,0.01,meteohub,2013-02-16 19:26:00,
2013-02-16 14:31:00,34.0,31.6,29.88,NW,313,9.0,13.0,91,0.00,,,0.01,meteohub,2013-02-16 19:31:00,
2013-02-16 14:36:00,34.0,31.6,29.88,WNW,298,6.0,18.0,91,0.00,,,0.01,meteohub,2013-02-16 19:36:00,
2013-02-16 14:41:00,34.0,31.6,29.88,NW,318,10.0,18.0,91,0.00,,,0.01,meteohub,2013-02-16 19:41:00,
2013-02-16 14:46:00,34.0,31.6,29.87,WNW,290,4.0,18.0,91,0.00,,,0.01,meteohub,2013-02-16 19:46:00,
2013-02-16 14:51:00,34.0,31.3,29.87,NW,306,10.0,18.0,90,0.00,,,0.01,meteohub,2013-02-16 19:51:00,
2013-02-16 14:56:00,34.0,31.3,29.87,NW,313,7.0,15.0,90,0.00,,,0.01,meteohub,2013-02-16 19:56:00,
2013-02-16 15:01:00,34.0,31.3,29.87,NW,308,12.0,15.0,90,0.00,,,0.01,meteohub,2013-02-16 20:01:00,
2013-02-16 15:06:00,34.2,31.3,29.86,NNW,342,8.0,15.0,89,0.00,,,0.02,meteohub,2013-02-16 20:06:00,
2013-02-16 15:11:00,34.2,30.9,29.86,NNW,330,10.0,15.0,88,0.01,,,0.02,meteohub,2013-02-16 20:11:00,
2013-02-16 15:16:00,34.2,30.9,29.86,NNW,344,12.0,18.0,88,0.01,,,0.02,meteohub,2013-02-16 20:16:00,
2013-02-16 15:22:00,34.3,30.9,29.86,WNW,301,14.0,18.0,87,0.01,,,0.02,meteohub,2013-02-16 20:22:00,
2013-02-16 15:27:00,34.3,30.6,29.86,NNW,338,8.0,18.0,86,0.01,,,0.02,meteohub,2013-02-16 20:27:00,
2013-02-16 15:32:00,34.3,30.6,29.85,North,355,13.0,18.0,86,0.01,,,0.02,meteohub,2013-02-16 20:32:00,
2013-02-16 15:37:00,34.3,30.4,29.85,NNW,343,9.0,19.0,85,0.01,,,0.02,meteohub,2013-02-16 20:37:00,
2013-02-16 15:42:00,34.3,30.6,29.85,NNW,333,2.0,19.0,86,0.01,,,0.02,meteohub,2013-02-16 20:42:00,
2013-02-16 15:47:00,34.5,30.6,29.85,NW,320,6.0,19.0,85,0.01,,,0.02,meteohub,2013-02-16 20:47:00,
2013-02-16 15:52:00,34.7,30.7,29.85,NW,320,7.0,19.0,85,0.01,,,0.02,meteohub,2013-02-16 20:52:00,
2013-02-16 15:57:00,34.7,30.4,29.85,NW,321,3.0,13.0,84,0.00,,,0.02,meteohub,2013-02-16 20:57:00,
2013-02-16 16:02:00,34.9,30.6,29.86,NW,321,4.0,13.0,84,0.00,,,0.02,meteohub,2013-02-16 21:02:00,
2013-02-16 16:07:00,35.1,30.7,29.86,NW,321,3.0,13.0,84,0.00,,,0.02,meteohub,2013-02-16 21:07:00,
2013-02-16 16:12:00,35.1,30.7,29.85,NW,321,2.0,13.0,84,0.00,,,0.02,meteohub,2013-02-16 21:12:00,
2013-02-16 16:17:00,35.2,30.9,29.85,NW,321,2.0,7.0,84,0.00,,,0.02,meteohub,2013-02-16 21:17:00,
2013-02-16 16:22:00,35.4,30.7,29.85,NW,321,2.0,7.0,83,0.00,,,0.02,meteohub,2013-02-16 21:22:00,
2013-02-16 16:27:00,35.6,30.9,29.85,NW,321,3.0,7.0,83,0.00,,,0.02,meteohub,2013-02-16 21:27:00,
2013-02-16 16:32:00,36.0,30.9,29.85,NW,321,3.0,7.0,82,0.00,,,0.02,meteohub,2013-02-16 21:32:00,
2013-02-16 16:37:00,36.3,31.1,29.85,NW,321,4.0,7.0,81,0.00,,,0.02,meteohub,2013-02-16 21:37:00,
2013-02-16 16:42:00,36.7,31.1,29.85,NW,321,3.0,5.0,80,0.00,,,0.02,meteohub,2013-02-16 21:42:00,
2013-02-16 16:47:00,36.9,30.6,29.85,NW,321,2.0,5.0,78,0.00,,,0.02,meteohub,2013-02-16 21:47:00,
2013-02-16 16:52:00,36.9,30.4,29.85,NW,321,4.0,5.0,77,0.00,,,0.02,meteohub,2013-02-16 21:52:00,
2013-02-16 16:57:00,36.9,30.0,29.84,NW,321,2.0,7.0,76,0.00,,,0.02,meteohub,2013-02-16 21:57:00,
2013-02-16 17:02:00,36.9,30.0,29.85,NW,321,4.0,7.0,76,0.00,,,0.02,meteohub,2013-02-16 22:02:00,
2013-02-16 17:07:00,36.9,29.3,29.84,NW,321,3.0,7.0,74,0.00,,,0.02,meteohub,2013-02-16 22:07:00,
2013-02-16 17:12:00,36.9,29.3,29.85,NW,321,4.0,7.0,74,0.00,,,0.02,meteohub,2013-02-16 22:12:00,
2013-02-16 17:17:00,36.9,29.3,29.85,NW,321,3.0,7.0,74,0.00,,,0.02,meteohub,2013-02-16 22:17:00,
2013-02-16 17:22:00,36.9,28.9,29.84,NW,321,5.0,7.0,73,0.00,,,0.02,meteohub,2013-02-16 22:22:00,
2013-02-16 17:27:00,37.0,29.5,29.84,NW,321,2.0,7.0,74,0.00,,,0.02,meteohub,2013-02-16 22:27:00,
2013-02-16 17:32:00,37.2,29.3,29.84,NW,321,2.0,7.0,73,0.00,,,0.02,meteohub,2013-02-16 22:32:00,
2013-02-16 17:37:00,37.0,29.1,29.84,NW,321,1.0,7.0,73,0.00,,,0.02,meteohub,2013-02-16 22:37:00,
2013-02-16 17:42:00,37.0,29.1,29.84,NW,321,4.0,7.0,73,0.00,,,0.02,meteohub,2013-02-16 22:42:00,
2013-02-16 17:47:00,36.9,28.9,29.84,NW,321,3.0,7.0,73,0.00,,,0.02,meteohub,2013-02-16 22:47:00,
2013-02-16 17:52:00,36.7,28.8,29.84,NW,321,2.0,7.0,73,0.00,,,0.02,meteohub,2013-02-16 22:52:00,
2013-02-16 17:57:00,36.7,28.6,29.84,NW,321,4.0,6.0,72,0.00,,,0.02,meteohub,2013-02-16 22:57:00,
2013-02-16 18:02:00,36.9,28.8,29.84,NW,321,3.0,6.0,72,0.00,,,0.02,meteohub,2013-02-16 23:02:00,
2013-02-16 18:07:00,36.9,28.8,29.84,NW,321,4.0,6.0,72,0.00,,,0.02,meteohub,2013-02-16 23:07:00,
2013-02-16 18:12:00,37.0,28.6,29.84,NW,326,7.0,7.0,71,0.00,,,0.02,meteohub,2013-02-16 23:12:00,
2013-02-16 18:17:00,37.0,28.6,29.83,NNW,327,9.0,9.0,71,0.00,,,0.02,meteohub,2013-02-16 23:17:00,
2013-02-16 18:22:00,37.0,28.2,29.83,NNW,329,10.0,10.0,70,0.00,,,0.02,meteohub,2013-02-16 23:22:00,
2013-02-16 18:27:00,37.0,28.6,29.84,NNW,330,4.0,10.0,71,0.00,,,0.02,meteohub,2013-02-16 23:27:00,
2013-02-16 18:32:00,37.0,28.2,29.84,NNW,336,7.0,10.0,70,0.00,,,0.02,meteohub,2013-02-16 23:32:00,
2013-02-16 18:37:00,37.0,28.2,29.84,NNW,341,8.0,10.0,70,0.00,,,0.02,meteohub,2013-02-16 23:37:00,
2013-02-16 18:42:00,37.2,28.0,29.84,NNW,347,9.0,12.0,69,0.00,,,0.02,meteohub,2013-02-16 23:42:00,
2013-02-16 18:47:00,37.2,27.7,29.84,NNW,348,9.0,12.0,68,0.00,,,0.02,meteohub,2013-02-16 23:47:00,
2013-02-16 18:52:00,37.2,27.7,29.83,North,355,7.0,12.0,68,0.00,,,0.02,meteohub,2013-02-16 23:52:00,
2013-02-16 18:57:00,37.0,27.1,29.83,North,351,9.0,12.0,67,0.00,,,0.02,meteohub,2013-02-16 23:57:00,
2013-02-16 19:02:00,37.2,27.3,29.83,North,355,6.0,13.0,67,0.00,,,0.02,meteohub,2013-02-17 00:02:00,
2013-02-16 19:07:00,37.2,27.0,29.83,NNW,344,8.0,13.0,66,0.00,,,0.02,meteohub,2013-02-17 00:07:00,
2013-02-16 19:12:00,37.0,26.8,29.83,NNW,345,4.0,13.0,66,0.00,,,0.02,meteohub,2013-02-17 00:12:00,
2013-02-16 19:17:00,37.6,27.3,29.83,NNW,346,4.0,12.0,66,0.00,,,0.02,meteohub,2013-02-17 00:17:00,
2013-02-16 19:22:00,37.6,27.0,29.83,NNW,347,7.0,12.0,65,0.00,,,0.02,meteohub,2013-02-17 00:22:00,
2013-02-16 19:27:00,37.6,27.0,29.83,North,355,11.0,12.0,65,0.00,,,0.02,meteohub,2013-02-17 00:27:00,
2013-02-16 19:32:00,37.4,26.4,29.83,NNW,345,11.0,12.0,64,0.00,,,0.02,meteohub,2013-02-17 00:32:00,
2013-02-16 19:37:00,37.6,26.1,29.82,NW,324,13.0,13.0,63,0.00,,,0.02,meteohub,2013-02-17 00:37:00,
2013-02-16 19:42:00,37.6,26.6,29.81,North,355,12.0,19.0,64,0.00,,,0.02,meteohub,2013-02-17 00:42:00,
2013-02-16 19:47:00,37.4,26.8,29.81,North,355,11.0,19.0,65,0.00,,,0.02,meteohub,2013-02-17 00:47:00,
2013-02-16 19:52:00,37.4,26.8,29.81,North,9,13.0,20.0,65,0.00,,,0.02,meteohub,2013-02-17 00:52:00,
2013-02-16 19:57:00,37.2,26.6,29.81,North,355,12.0,20.0,65,0.00,,,0.02,meteohub,2013-02-17 00:57:00,
2013-02-16 20:02:00,37.2,26.6,29.81,NNW,343,7.0,20.0,65,0.00,,,0.02,meteohub,2013-02-17 01:02:00,
2013-02-16 20:07:00,37.2,26.6,29.81,NW,326,7.0,20.0,65,0.00,,,0.02,meteohub,2013-02-17 01:07:00,
2013-02-16 20:12:00,37.0,26.4,29.81,NNW,333,10.0,21.0,65,0.00,,,0.02,meteohub,2013-02-17 01:12:00,
2013-02-16 20:18:00,37.0,26.8,29.81,WNW,296,8.0,21.0,66,0.00,,,0.02,meteohub,2013-02-17 01:18:00,
2013-02-16 20:23:00,36.9,26.6,29.81,WNW,297,6.0,17.0,66,0.00,,,0.02,meteohub,2013-02-17 01:23:00,
2013-02-16 20:28:00,36.7,26.4,29.81,NW,308,6.0,17.0,66,0.00,,,0.02,meteohub,2013-02-17 01:28:00,
2013-02-16 20:33:00,36.3,26.1,29.81,WNW,303,7.0,15.0,66,0.00,,,0.02,meteohub,2013-02-17 01:33:00,
2013-02-16 20:38:00,36.5,26.6,29.81,NW,308,12.0,15.0,67,0.00,,,0.02,meteohub,2013-02-17 01:38:00,
2013-02-16 20:43:00,36.3,26.8,29.81,NNW,348,16.0,16.0,68,0.00,,,0.02,meteohub,2013-02-17 01:43:00,
2013-02-16 20:48:00,36.0,26.8,29.80,WNW,302,9.0,16.0,69,0.00,,,0.02,meteohub,2013-02-17 01:48:00,
2013-02-16 20:53:00,35.8,27.0,29.80,NNW,343,10.0,16.0,70,0.00,,,0.02,meteohub,2013-02-17 01:53:00,
2013-02-16 20:58:00,35.4,26.6,29.80,NNW,329,8.0,25.0,70,0.00,,,0.02,meteohub,2013-02-17 01:58:00,
2013-02-16 21:03:00,35.2,26.8,29.80,NW,304,5.0,25.0,71,0.00,,,0.02,meteohub,2013-02-17 02:03:00,
2013-02-16 21:08:00,35.1,27.0,29.80,NW,311,9.0,25.0,72,0.00,,,0.02,meteohub,2013-02-17 02:08:00,
2013-02-16 21:13:00,34.5,27.1,29.80,NW,307,7.0,18.0,74,0.00,,,0.02,meteohub,2013-02-17 02:13:00,
2013-02-16 21:18:00,34.2,27.3,29.80,NNW,330,10.0,18.0,76,0.00,,,0.02,meteohub,2013-02-17 02:18:00,
2013-02-16 21:23:00,34.0,27.5,29.79,NW,318,6.0,21.0,77,0.00,,,0.02,meteohub,2013-02-17 02:23:00,
2013-02-16 21:28:00,33.6,27.5,29.79,NNW,332,10.0,21.0,78,0.00,,,0.02,meteohub,2013-02-17 02:28:00,
2013-02-16 21:33:00,33.4,27.9,29.79,NW,309,6.0,22.0,80,0.00,,,0.02,meteohub,2013-02-17 02:33:00,
2013-02-16 21:38:00,33.3,28.0,29.79,NW,320,7.0,22.0,81,0.00,,,0.02,meteohub,2013-02-17 02:38:00,
2013-02-16 21:43:00,33.1,28.2,29.78,NNW,328,4.0,22.0,82,0.00,,,0.02,meteohub,2013-02-17 02:43:00,
2013-02-16 21:48:00,32.7,28.4,29.78,NW,315,9.0,16.0,84,0.00,,,0.02,meteohub,2013-02-17 02:48:00,
2013-02-16 21:53:00,32.5,28.6,29.77,NNW,330,11.0,16.0,85,0.00,,,0.02,meteohub,2013-02-17 02:53:00,
2013-02-16 21:58:00,32.4,28.6,29.77,NW,306,5.0,16.0,86,0.00,,,0.02,meteohub,2013-02-17 02:58:00,
2013-02-16 22:03:00,32.2,28.8,29.78,WNW,296,14.0,19.0,87,0.00,,,0.02,meteohub,2013-02-17 03:03:00,
2013-02-16 22:08:00,32.0,28.6,29.77,NW,319,7.0,19.0,87,0.00,,,0.02,meteohub,2013-02-17 03:08:00,
2013-02-16 22:13:00,31.8,28.4,29.77,WNW,296,7.0,17.0,87,0.00,,,0.02,meteohub,2013-02-17 03:13:00,
2013-02-16 22:18:00,31.8,28.4,29.76,NNW,343,9.0,17.0,87,0.00,,,0.02,meteohub,2013-02-17 03:18:00,
2013-02-16 22:24:00,31.8,28.0,29.75,NNW,346,11.0,17.0,86,0.00,,,0.02,meteohub,2013-02-17 03:24:00,
2013-02-16 22:29:00,31.8,28.0,29.75,NW,309,9.0,20.0,86,0.00,,,0.02,meteohub,2013-02-17 03:29:00,
2013-02-16 22:34:00,31.8,27.9,29.75,NNW,334,16.0,20.0,85,0.00,,,0.02,meteohub,2013-02-17 03:34:00,
2013-02-16 22:39:00,31.8,27.9,29.74,NW,310,7.0,20.0,85,0.00,,,0.02,meteohub,2013-02-17 03:39:00,
2013-02-16 22:44:00,31.8,27.5,29.74,North,355,13.0,20.0,84,0.00,,,0.02,meteohub,2013-02-17 03:44:00,
2013-02-16 22:49:00,31.8,27.5,29.73,NW,304,10.0,20.0,84,0.00,,,0.02,meteohub,2013-02-17 03:49:00,
2013-02-16 22:54:00,31.8,27.5,29.73,NW,323,11.0,20.0,84,0.00,,,0.02,meteohub,2013-02-17 03:54:00,
2013-02-16 22:59:00,31.8,27.9,29.73,NW,313,8.0,20.0,85,0.00,,,0.02,meteohub,2013-02-17 03:59:00,
2013-02-16 23:04:00,31.8,27.9,29.73,North,0,8.0,18.0,85,0.00,,,0.02,meteohub,2013-02-17 04:04:00,
2013-02-16 23:09:00,31.6,27.7,29.73,WNW,284,10.0,18.0,85,0.00,,,0.02,meteohub,2013-02-17 04:09:00,
2013-02-16 23:14:00,31.6,27.7,29.73,NW,317,10.0,17.0,85,0.00,,,0.02,meteohub,2013-02-17 04:14:00,
2013-02-16 23:19:00,31.5,27.5,29.73,WNW,302,4.0,17.0,85,0.00,,,0.02,meteohub,2013-02-17 04:19:00,
2013-02-16 23:24:00,31.5,27.7,29.72,WNW,303,12.0,17.0,86,0.00,,,0.02,meteohub,2013-02-17 04:24:00,
2013-02-16 23:29:00,31.5,27.7,29.70,NW,313,9.0,20.0,86,0.00,,,0.02,meteohub,2013-02-17 04:29:00,
2013-02-16 23:34:00,31.3,27.5,29.70,NW,321,12.0,20.0,86,0.00,,,0.02,meteohub,2013-02-17 04:34:00,
2013-02-16 23:39:00,31.1,27.7,29.71,NW,323,10.0,21.0,87,0.00,,,0.02,meteohub,2013-02-17 04:39:00,
2013-02-16 23:44:00,30.9,27.5,29.70,North,350,10.0,21.0,87,0.00,,,0.02,meteohub,2013-02-17 04:44:00,
2013-02-16 23:49:00,30.9,27.5,29.70,NNW,328,13.0,21.0,87,0.00,,,0.02,meteohub,2013-02-17 04:49:00,
2013-02-16 23:54:00,30.9,27.5,29.70,NNW,336,8.0,21.0,87,0.00,,,0.02,meteohub,2013-02-17 04:54:00,
2013-02-16 23:59:00,30.9,27.5,29.70,NNW,345,8.0,21.0,87,0.00,,,0.02,meteohub,2013-02-17 04:59:00,